Location: Newton_East
(35.6670°N, 81.2000°W)
Time: 16:16:09
(UTC-05:00)

ISS - Visible Passes

Search period start: 09 December 2016 00:00
Search period end: 19 December 2016 00:00
Orbit: 401 x 410 km, 51.6° (Epoch: 10 December)

Date Brightness Start Highest point End Pass type
(mag) Time Alt. Az. Time Alt. Az. Time Alt. Az.
15 Dec -1.2 18:38:46 10° NNW 18:40:01 16° N 18:40:01 16° N visible
16 Dec -1.2 17:47:24 10° N 17:48:56 13° NNE 17:50:28 10° NE visible
16 Dec -0.6 19:22:33 10° NW 19:23:18 16° NW 19:23:18 16° NW visible
17 Dec -2.9 18:30:37 10° NW 18:33:46 40° NE 18:34:09 38° ENE visible
18 Dec -2.0 17:38:51 10° NNW 17:41:33 23° NNE 17:44:15 10° E visible
18 Dec -1.6 19:15:05 10° WNW 19:18:05 32° SW 19:18:06 32° SW visible
